Location: La Brionne
(46.1728°N, 1.7849°E)
Time: 13:12:19
(UTC+00:00)

Cosmos 2219 Rocket - Pass Details

Date: 27 October 2021
Orbit: 826 x 848 km, 71.0° (Epoch: 01 December)

Event Time Altitude Azimuth Distance (km) Brightness Sun altitude
Exits shadow 04:13:42 12° 337° (NNW) 2,322 4.3 -23.6°
Maximum altitude 04:18:59 76° 62° (ENE) 873 2.3 -22.7°
Drops below altitude 10° 04:24:39 10° 149° (SSE) 2,463 4.9 -21.7°
Sets 04:27:05 0° 151° (SSE) 3,396 5.7 -21.3°
